This demonstration page uses our WeatherBlox Daily Observations layout. Learn more.

39.92423, -83.80882

Hourly Observations for May 25, 2019

Temp ( °F °C ) Dew Point ( °F °C ) Humidity (%) Winds ( mph kmh ) Pressure ( in mb ) Visibility ( mi km ) Precip ( " mm )
12:56 am 00:56 Clear 67 19.4 66 18.9 97 97 SE 6 9 30.06 1018 10 16.0934 0 0
1:56 am 01:56 Clear 67 19.4 67 19.4 100 100 SSE 6 9 30.06 1018 10 16.0934 0 0
2:56 am 02:56 Clear 68 20 68 20 100 100 SSE 7 11 30.05 1018 10 16.0934 0 0
3:56 am 03:56 Clear 68 20 66 18.9 93 93 S 6 9 30.04 1017 10 16.0934 0 0
4:56 am 04:56 Partly Cloudy 68 20 65 18.3 90 90 SSW 3 6 30.03 1017 10 16.0934 0 0
5:56 am 05:56 Mostly Clear 68 20 65 18.3 90 90 S 6 9 30.02 1017 10 16.0934 0 0
6:56 am 06:56 Mostly Cloudy 68 20 65 18.3 90 90 S 6 9 30.04 1017 10 16.0934 0 0
7:56 am 07:56 Mostly Cloudy 71 21.7 66 18.9 84 84 S 6 9 30.06 1018 10 16.0934 0 0
8:56 am 08:56 Cloudy 72 22.2 66 18.9 82 82 SSW 7 11 30.06 1018 10 16.0934 0 0
9:56 am 09:56 Mostly Cloudy 76 24.4 68 20 77 77 SW 12 19 30.06 1018 10 16.0934 0 0
10:56 am 10:56 Mostly Cloudy 81 27.2 70 21.1 69 69 WSW 18 30 30.04 1017 10 16.0934 0 0
11:56 am 11:56 Sunny 82 27.8 70 21.1 67 67 WSW 14 22 30.03 1017 10 16.0934 0 0
12:56 pm 12:56 Sunny 84 28.9 70 21.1 63 63 W 18 30 30.01 1016 10 16.0934 0 0
1:56 pm 13:56 Mostly Cloudy 87 30.6 68 20 53 53 WSW 24 39 29.99 1016 10 16.0934 0 0
2:56 pm 14:56 Mostly Sunny 86 30 66 18.9 51 51 SW 26 43 29.97 1015 10 16.0934 0 0
3:56 pm 15:56 Partly Cloudy 86 30 64 17.8 48 48 WSW 18 30 29.99 1016 10 16.0934 0 0
4:56 pm 16:56 Mostly Cloudy 74 23.3 65 18.3 74 74 NW 21 33 30.03 1017 10 16.0934 0 0
5:03 pm 17:03 Cloudy with Light Rain 73 23 66 19 78 78 NW 15 24 30.01 1016 10 16.0934 0 0.0254
5:56 pm 17:56 Cloudy with Light Rain 71 21.7 68 20 90 90 WNW 16 26 30.06 1018 10 16.0934 0 0.0254
7:56 pm 19:56 Sunny 72 22.2 70 21.1 94 94 SW 7 11 30.05 1018 10 16.0934 0 0
8:56 pm 20:56 Clear 70 21.1 70 21.1 100 100 SSW 3 6 30.03 1017 10 16.0934 0 0
9:56 pm 21:56 Clear 69 20.6 69 20.6 100 100 Calm 30.04 1017 10 16.0934 0 0
10:56 pm 22:56 Clear 69 20.6 67 19.4 93 93 SSW 3 6 30.04 1017 10 16.0934 0 0
11:56 pm 23:56 Clear 69 20.6 67 19.4 93 93 SSW 5 7 30.03 1017 10 16.0934 0 0

Powered by AerisWeather